Flag for Trinidad and Tobago Weather past 2 weeks in Chaguanas, Trinidad and Tobago

Now
79 °F

Passing clouds.


Feels Like: 82 °F
Forecast: 78 / 89 °F
Wind: No wind

Location: Piarco International Airport - Trinidad

Current Time: Jul 2, 2015 at 10:49:52 PM

Latest Report: Jul 2, 2015 at 9:00 PM


Visibility: N/A

Pressure: 29.95 "Hg

Humidity: 84%

Dew point: 73 °F

Location of ChaguanasLocation

Historic Weather in Chaguanas — Graph

°F

Chaguanas temperature yesterday

Maximum temperature yesterday: 90 °F (at 2:00 PM)
Minimum temperature yesterday: 77 °F (at 3:00 AM)
Average temperature yesterday: 82 °F

Past Weeks' High & Low Weather Summary

 TemperatureHumidityPressure
High90 °F (Jun 18, 2:00 PM)100% (Jun 22, 5:00 AM)30.07 "Hg (Jun 22, 5:00 AM)
Low75 °F (Jun 23, 3:00 AM)52% (Jun 25, 1:00 PM)29.89 "Hg (Jun 18, 4:00 PM)
Average81 °F81%29.99 "Hg
* Reported Jun 17 9:00 PM — Jul 2 9:00 PM, Chaguanas, Weather by CustomWeather, © 2015

Note: Actual official high and low records may vary slightly from our data, if they occured in-between our weather recording intervals... More about our weather records

Advertising

Chaguanas weather history for previous 24 hours

 ConditionsComfort  
Time TempWeatherWind HumidityBarometerVisibility
9:00 PM
Thu, Jul 2
79 °FPassing clouds.No wind84%29.95 "HgN/A
8:00 PM81 °FPassing clouds.6 mph79%29.92 "HgN/A
7:00 PM81 °FPassing clouds.9 mph79%29.92 "HgN/A
6:00 PM84 °FPassing clouds.12 mph70%29.89 "HgN/A
5:00 PM86 °FPassing clouds.14 mph59%29.89 "HgN/A
4:00 PM88 °FPassing clouds.12 mph59%29.89 "HgN/A
3:00 PM90 °FPassing clouds.12 mph55%29.89 "HgN/A
2:00 PM90 °FPassing clouds.14 mph59%29.92 "HgN/A
1:00 PM90 °FPartly sunny.16 mph59%29.95 "HgN/A
12:00 PM90 °FScattered clouds.16 mph59%29.95 "HgN/A
11:00 AM86 °FPassing clouds.14 mph66%29.98 "HgN/A
9:00 AM82 °FSprinkles. Scattered clouds.7 mph79%29.98 "HgN/A
8:00 AM81 °FPassing clouds.7 mph79%29.98 "HgN/A
7:00 AM77 °FSprinkles. Partly sunny.8 mph89%29.95 "HgN/A
6:00 AM77 °FScattered clouds.6 mph89%29.95 "HgN/A
5:00 AM77 °FPassing clouds.5 mph89%29.92 "HgN/A
4:00 AM77 °FPassing clouds.5 mph89%29.92 "HgN/A
3:00 AM79 °FPassing clouds.7 mph84%29.92 "HgN/A
2:00 AM79 °FPassing clouds.8 mph84%29.95 "HgN/A
1:00 AM79 °FPassing clouds.3 mph84%29.95 "HgN/A
12:00 AM79 °FPassing clouds.3 mph84%29.98 "HgN/A
11:00 PM
Wed, Jul 1
79 °FLight rain. Overcast.No wind84%29.98 "Hg6 mi
10:00 PM79 °FPassing clouds.3 mph79%29.98 "HgN/A
Weather by CustomWeather, © 2015

See weather overviewHow to use our weather pages